STARLINK-34499

Last updated on Sat Jul 19 2025 00:02:08 GMT+0000 (Coordinated Universal Time)

1 64709U 25142P 25199.58335648 -.01242655 00000+0 -21499-1 0 9990 2 64709 69.9998 194.6413 0004041 279.5161 176.4672 15.53410418 4005
UTC large
Height (km)
Speed (km/s)
/
Latitude / Longitude
Inclination (degrees)
Orbital Period (minutes)
Azimuth
Elevation
Range (km)
Doppler Factor

Next 0 passes for location: London (51.5072 / 0.1276)

Sorry there are no passes over London.